Powrót do katalogu

STARLINK-37539

AktywnyŁącznośćSSO
NORAD 68845·PAYLOAD·🇺🇸 United States

Wystrzelony Apr 26, 2026 z Vandenberg Space Force Base

Loading…

Następne Przeloty (najbliższe 24 godziny)

TLE

ŚwieżeSource: CelesTrak SupGP

Epoka: Sep 15, 2026, 02:47 UTC

1 68845C 26094G   26258.11645833 -.00047605  00000+0 -14778-2 0  2586
2 68845  97.2837 271.2866 0001494  90.0420 164.0964 15.33462223    16

Śledź STARLINK-37539 w czasie rzeczywistym z AllMySat

Download on the App Store